• In Netherlands
  • List of Countries
  • For 7 days
  • Water Temperature
  • Satellite Maps
  • Weather Map
  • Weather Widgets
  • user-avatar
    Login

    Hourly Weather Kipungo

    Today, 25 January, Wednesday

    Time Temperature Precipitation Wind Pressure Humidity
    00:00 +18°C° 0 mm 1 mps 653 mmHg 97%
    01:00 +18°C° 0 mm 1 mps 653 mmHg 97%
    02:00 +18°C° 0 mm 1 mps 653 mmHg 97%
    03:00 +16°C° 0 mm 1 mps 652 mmHg 98%
    04:00 +16°C° 0 mm 1 mps 652 mmHg 98%
    05:00 +16°C° 0 mm 1 mps 652 mmHg 96%
    06:00 +18°C° 0 mm 1 mps 653 mmHg 95%
    07:00 +18°C° 0 mm 1 mps 653 mmHg 93%
    08:00 +19°C° 0 mm 2 mps 653 mmHg 85%
    09:00 +21°C° 0 mm 2 mps 654 mmHg 76%
    10:00 +24°C° 0 mm 3 mps 654 mmHg 68%
    11:00 +25°C° 0.1 mm 3 mps 654 mmHg 64%
    12:00 +26°C° 0.1 mm 4 mps 655 mmHg 60%
    13:00 +27°C° 0.1 mm 4 mps 655 mmHg 56%
    14:00 +27°C° 0.2 mm 4 mps 654 mmHg 57%
    15:00 +27°C° 0.2 mm 4 mps 653 mmHg 59%
    16:00 +27°C° 0.2 mm 4 mps 653 mmHg 60%
    17:00 +25°C° 0.1 mm 4 mps 653 mmHg 68%
    18:00 +22°C° 0.1 mm 3 mps 653 mmHg 75%
    19:00 +20°C° 0.1 mm 2 mps 653 mmHg 83%
    20:00 +19°C° 0 mm 2 mps 653 mmHg 86%
    21:00 +19°C° 0 mm 1 mps 653 mmHg 89%
    22:00 +18°C° 0 mm 1 mps 654 mmHg 92%
    23:00 +18°C° 0 mm 1 mps 654 mmHg 93%

    Tomorrow, 26 January, Thursday

    Time Temperature Precipitation Wind Pressure Humidity
    00:00 +18°C° 0 mm 1 mps 653 mmHg 93%
    01:00 +16°C° 0 mm 1 mps 653 mmHg 94%
    02:00 +16°C° 0 mm 1 mps 653 mmHg 94%
    03:00 +15°C° 0 mm 1 mps 652 mmHg 95%
    04:00 +15°C° 0 mm 1 mps 652 mmHg 95%
    05:00 +16°C° 0 mm 1 mps 652 mmHg 92%
    06:00 +18°C° 0 mm 1 mps 653 mmHg 89%
    07:00 +18°C° 0 mm 1 mps 653 mmHg 86%
    08:00 +21°C° 0 mm 1 mps 654 mmHg 76%
    09:00 +24°C° 0 mm 1 mps 654 mmHg 66%
    10:00 +26°C° 0 mm 2 mps 655 mmHg 56%
    11:00 +27°C° 0 mm 2 mps 655 mmHg 55%
    12:00 +27°C° 0 mm 2 mps 654 mmHg 53%
    13:00 +28°C° 0 mm 2 mps 654 mmHg 52%
    14:00 +28°C° 0.1 mm 2 mps 654 mmHg 54%
    15:00 +28°C° 0.1 mm 3 mps 653 mmHg 55%
    16:00 +28°C° 0.1 mm 3 mps 653 mmHg 57%
    17:00 +26°C° 0 mm 3 mps 653 mmHg 64%
    18:00 +24°C° 0 mm 2 mps 653 mmHg 72%
    19:00 +21°C° 0 mm 2 mps 652 mmHg 79%
    20:00 +21°C° 0 mm 2 mps 653 mmHg 82%
    21:00 +20°C° 0 mm 2 mps 653 mmHg 84%
    22:00 +20°C° 0 mm 1 mps 654 mmHg 86%
    23:00 +20°C° 0 mm 1 mps 653 mmHg 88%

    Day after tomorrow, 27 January, Friday

    Time Temperature Precipitation Wind Pressure Humidity
    00:00 +19°C° 0 mm 1 mps 653 mmHg 90%
    01:00 +19°C° 0 mm 1 mps 652 mmHg 92%
    02:00 +19°C° 0 mm 1 mps 652 mmHg 93%
    03:00 +18°C° 0 mm 1 mps 652 mmHg 94%
    04:00 +18°C° 0 mm 1 mps 652 mmHg 96%
    05:00 +19°C° 0 mm 1 mps 652 mmHg 93%
    06:00 +19°C° 0 mm 1 mps 653 mmHg 90%
    07:00 +20°C° 0 mm 1 mps 653 mmHg 88%
    08:00 +23°C° 0 mm 1 mps 654 mmHg 78%
    09:00 +23°C° 0 mm 0 mps 655 mmHg 69%
    10:00 +26°C° 0 mm 0 mps 656 mmHg 59%
    11:00 +28°C° 0.7 mm 1 mps 655 mmHg 59%
    12:00 +29°C° 0.7 mm 1 mps 654 mmHg 59%
    13:00 +29°C° 0.7 mm 2 mps 654 mmHg 60%
    14:00 +28°C° 1.1 mm 2 mps 653 mmHg 64%
    15:00 +28°C° 1.1 mm 3 mps 652 mmHg 67%
    16:00 +27°C° 1.1 mm 3 mps 652 mmHg 71%
    17:00 +25°C° 0.7 mm 3 mps 652 mmHg 77%
    18:00 +24°C° 0.7 mm 2 mps 652 mmHg 82%
    19:00 +21°C° 0.7 mm 2 mps 652 mmHg 88%
    20:00 +21°C° 0.1 mm 2 mps 653 mmHg 90%
    21:00 +20°C° 0.1 mm 2 mps 653 mmHg 91%
    22:00 +19°C° 0.1 mm 2 mps 653 mmHg 93%
    23:00 +19°C° 0 mm 2 mps 653 mmHg 93%

    28 January, Saturday

    Time Temperature Precipitation Wind Pressure Humidity
    00:00 +19°C° 0 mm 2 mps 653 mmHg 94%
    01:00 +18°C° 0 mm 2 mps 652 mmHg 95%
    02:00 +18°C° 0 mm 2 mps 652 mmHg 95%
    03:00 +18°C° 0 mm 2 mps 652 mmHg 95%
    04:00 +17°C° 0 mm 2 mps 652 mmHg 95%
    05:00 +17°C° 0 mm 2 mps 652 mmHg 94%
    06:00 +17°C° 0 mm 2 mps 652 mmHg 92%
    07:00 +18°C° 0 mm 2 mps 653 mmHg 91%
    08:00 +19°C° 0 mm 2 mps 653 mmHg 81%
    09:00 +21°C° 0 mm 2 mps 654 mmHg 71%
    10:00 +24°C° 0 mm 2 mps 654 mmHg 62%
    11:00 +25°C° 0 mm 2 mps 654 mmHg 53%
    12:00 +27°C° 0 mm 3 mps 654 mmHg 44%
    13:00 +28°C° 0 mm 3 mps 654 mmHg 35%
    14:00 +28°C° 0 mm 3 mps 653 mmHg 35%
    15:00 +28°C° 0 mm 4 mps 653 mmHg 36%
    16:00 +28°C° 0 mm 4 mps 652 mmHg 36%
    17:00 +26°C° 0 mm 3 mps 652 mmHg 45%
    18:00 +22°C° 0 mm 3 mps 652 mmHg 54%
    19:00 +19°C° 0 mm 2 mps 652 mmHg 63%
    20:00 +19°C° 0 mm 2 mps 652 mmHg 63%
    21:00 +18°C° 0 mm 2 mps 653 mmHg 64%
    22:00 +17°C° 0 mm 2 mps 653 mmHg 65%
    23:00 +16°C° 0 mm 2 mps 653 mmHg 68%

    29 January, Sunday

    Time Temperature Precipitation Wind Pressure Humidity
    00:00 +16°C° 0 mm 2 mps 652 mmHg 70%
    01:00 +15°C° 0 mm 2 mps 652 mmHg 73%
    02:00 +15°C° 0 mm 2 mps 652 mmHg 77%
    03:00 +14°C° 0 mm 2 mps 651 mmHg 81%
    04:00 +14°C° 0 mm 2 mps 651 mmHg 85%
    05:00 +15°C° 0 mm 2 mps 652 mmHg 81%
    06:00 +15°C° 0 mm 2 mps 652 mmHg 77%
    07:00 +16°C° 0 mm 2 mps 653 mmHg 73%
    08:00 +19°C° 0 mm 2 mps 654 mmHg 59%
    09:00 +22°C° 0 mm 3 mps 654 mmHg 45%
    10:00 +26°C° 0 mm 3 mps 655 mmHg 30%
    11:00 +28°C° 0 mm 3 mps 655 mmHg 28%
    12:00 +29°C° 0 mm 4 mps 654 mmHg 27%
    13:00 +30°C° 0 mm 4 mps 654 mmHg 25%
    14:00 +30°C° 0 mm 4 mps 654 mmHg 26%
    15:00 +30°C° 0 mm 4 mps 653 mmHg 28%
    16:00 +29°C° 0 mm 4 mps 653 mmHg 29%
    17:00 +27°C° 0 mm 3 mps 653 mmHg 37%
    18:00 +24°C° 0 mm 3 mps 652 mmHg 45%
    19:00 +20°C° 0 mm 2 mps 652 mmHg 53%
    20:00 +19°C° 0 mm 2 mps 652 mmHg 54%
    21:00 +19°C° 0 mm 2 mps 652 mmHg 55%
    22:00 +18°C° 0 mm 2 mps 653 mmHg 56%
    23:00 +17°C° 0 mm 2 mps 652 mmHg 57%

    30 January, Monday

    Time Temperature Precipitation Wind Pressure Humidity
    00:00 +17°C° 0 mm 2 mps 652 mmHg 58%
    01:00 +16°C° 0 mm 1 mps 652 mmHg 59%
    02:00 +16°C° 0 mm 1 mps 652 mmHg 60%
    03:00 +16°C° 0 mm 1 mps 651 mmHg 61%
    04:00 +15°C° 0 mm 1 mps 651 mmHg 62%
    05:00 +16°C° 0 mm 1 mps 652 mmHg 61%
    06:00 +18°C° 0 mm 1 mps 653 mmHg 60%
    07:00 +19°C° 0 mm 1 mps 653 mmHg 58%
    08:00 +21°C° 0 mm 2 mps 654 mmHg 49%
    09:00 +25°C° 0 mm 2 mps 654 mmHg 40%
    10:00 +28°C° 0 mm 3 mps 655 mmHg 30%
    11:00 +29°C° 0 mm 3 mps 655 mmHg 28%
    12:00 +30°C° 0 mm 4 mps 654 mmHg 26%
    13:00 +33°C° 0 mm 4 mps 654 mmHg 25%
    14:00 +32°C° 0 mm 4 mps 654 mmHg 26%
    15:00 +32°C° 0 mm 4 mps 653 mmHg 27%
    16:00 +32°C° 0 mm 4 mps 653 mmHg 28%
    17:00 +28°C° 0 mm 4 mps 652 mmHg 36%
    18:00 +25°C° 0 mm 3 mps 652 mmHg 44%
    19:00 +21°C° 0 mm 2 mps 652 mmHg 52%
    20:00 +20°C° 0 mm 2 mps 652 mmHg 54%
    21:00 +19°C° 0 mm 2 mps 652 mmHg 56%
    22:00 +18°C° 0 mm 2 mps 653 mmHg 58%
    23:00 +17°C° 0 mm 2 mps 652 mmHg 60%
    Show more